Weather History for EHAM - February, 2013

Change the Weather History Date:

Friday, February 1, 2013

  Actual Average Record
Temperature  
Mean Temperature 40 °F -  
Max Temperature 45 °F 43 °F 55 °F (2002)
Min Temperature 35 °F 34 °F 19 °F (1998)
Degree Days  
Heating Degree Days 25    
Moisture  
Dew Point 39 °F    
Average Humidity 89    
Maximum Humidity 100    
Minimum Humidity 73    
Precipitation  
Precipitation 0.16 in - - ()
Sea Level Pressure  
Sea Level Pressure 29.55 in    
Wind  
Wind Speed 13 mph ()    
Max Wind Speed 25 mph    
Max Gust Speed 37 mph    
Visibility 6.4 miles    
Events Rain    
Averages and records for this station are not official NWS values.
T = Trace of Precipitation, MM = Missing Value Source: Averaged Metar Reports

Daily Weather History Graph

Daily Weather History Graph

Search for Another Location

Airport or City:

Trip Planner

Search our weather history database for the weather conditions in past years. The results will help you decide how hot, cold, wet, or windy it might be!

Date:

Astronomy

Feb. 01, 2013 Rise Set
Actual Time 8:21 AM CET 5:27 PM CET
Civil Twilight 7:44 AM CET 6:04 PM CET
Nautical Twilight 7:03 AM CET 6:45 PM CET
Astronomical Twilight 6:24 AM CET 7:25 PM CET
Moon No Moon Rise 9:56 AM CET
Length of Visible Light 10h 20m
Length of Day
9h 06m
Waning Gibbous, 73% of the Moon is Illuminated
Feb 1
Waning Gibbous
Feb 3
Last Quarter
Feb 10
New
Feb 17
First Quarter
Feb 25
Full

Hourly Weather History & Observations

Time (CET) Temp. Windchill Dew Point Humidity Pressure Visibility Wind Dir Wind Speed Gust Speed Precip Events Conditions
12:25 AM 44.6 °F 35.7 °F 39.2 °F 81% 29.80 in 6.2 mi WSW 24.2 mph - N/A   Partly Cloudy
12:55 AM 44.6 °F 35.7 °F 39.2 °F 81% 29.80 in 6.2 mi WSW 24.2 mph 36.8 mph N/A   Partly Cloudy
1:00 AM 45 °F - 39 °F 73% 29.81 in 7 mi WSW 24.6 mph - -   Partly Cloudy
1:25 AM 44.6 °F 36.4 °F 39.2 °F 81% 29.80 in - WSW 20.7 mph - N/A   Clear
1:55 AM 44.6 °F 37.4 °F 39.2 °F 81% 29.77 in - WSW 16.1 mph - N/A   Clear
2:55 AM 44.6 °F 37.2 °F 39.2 °F 81% 29.77 in - WSW 17.3 mph - N/A   Clear
3:25 AM 44.6 °F 37.2 °F 39.2 °F 81% 29.77 in - WSW 17.3 mph - N/A   Clear
3:55 AM 44.6 °F 37.8 °F 39.2 °F 81% 29.74 in - WSW 15.0 mph - N/A   Clear
4:00 AM 44 °F - 40 °F 80% 29.76 in 6 mi WSW 13.4 mph - -   Mostly Cloudy
4:55 AM 44.6 °F 38.1 °F 39.2 °F 81% 29.71 in 6.2 mi SW 13.8 mph - N/A   Partly Cloudy
5:25 AM 44.6 °F 37.8 °F 41.0 °F 87% 29.71 in - SW 15.0 mph - N/A   Clear
5:55 AM 44.6 °F 37.8 °F 41.0 °F 87% 29.68 in - WSW 15.0 mph - N/A   Clear
6:25 AM 44.6 °F 38.1 °F 41.0 °F 87% 29.68 in - WSW 13.8 mph - N/A   Clear
6:55 AM 44.6 °F 37.4 °F 41.0 °F 87% 29.68 in - WSW 16.1 mph - N/A   Clear
7:00 AM 45 °F - 41 °F 80% 29.69 in 6 mi WSW 15.7 mph - -   Partly Cloudy
7:25 AM 44.6 °F 37.4 °F 41.0 °F 87% 29.65 in 6.2 mi WSW 16.1 mph - N/A   Partly Cloudy
7:55 AM 44.6 °F 38.1 °F 41.0 °F 87% 29.65 in 6.2 mi SW 13.8 mph - N/A   Partly Cloudy
8:25 AM 44.6 °F 38.4 °F 41.0 °F 87% 29.62 in 6.2 mi SW 12.7 mph - N/A   Partly Cloudy
8:55 AM 44.6 °F 37.8 °F 41.0 °F 87% 29.62 in 6.2 mi SW 15.0 mph - N/A   Scattered Clouds
9:25 AM 44.6 °F 37.8 °F 39.2 °F 81% 29.59 in 6.2 mi SW 15.0 mph - N/A   Mostly Cloudy
9:55 AM 44.6 °F 37.4 °F 41.0 °F 87% 29.59 in 6.2 mi SSW 16.1 mph - N/A Rain Light Rain
10:00 AM 44 °F - 41 °F 84% 29.60 in 7 mi SW 15.7 mph - - Rain Drizzle
10:25 AM 42.8 °F 35.1 °F 41.0 °F 93% 29.59 in 6.2 mi SSW 16.1 mph - N/A Rain Light Rain
10:55 AM 42.8 °F 35.4 °F 41.0 °F 93% 29.56 in 5.0 mi SSW 15.0 mph - N/A Rain Light Rain
11:25 AM 41.0 °F 33.1 °F 39.2 °F 93% 29.56 in 6.2 mi SSW 15.0 mph - N/A Rain Light Rain
11:55 AM 41.0 °F 34.3 °F 39.2 °F 93% 29.53 in 5.6 mi SSW 11.5 mph - N/A Rain Light Rain
12:25 PM 41.0 °F 34.3 °F 39.2 °F 93% 29.53 in 6.2 mi SSW 11.5 mph - N/A Rain Light Rain
12:55 PM 41.0 °F 34.3 °F 37.4 °F 87% 29.50 in 6.2 mi SSW 11.5 mph - N/A Rain Light Rain
1:00 PM 40 °F - 38 °F 88% 29.52 in 7 mi SSW 11.2 mph - - Rain Rain
1:25 PM 41.0 °F 35.8 °F 37.4 °F 87% 29.47 in 6.2 mi SSW 8.1 mph - N/A Rain Rain
1:55 PM 41.0 °F 36.4 °F 37.4 °F 87% 29.47 in 6.2 mi SSW 6.9 mph - N/A Rain Rain
2:25 PM 41.0 °F 39.0 °F 37.4 °F 87% 29.44 in 6.2 mi West 3.5 mph - N/A Rain Light Rain
2:55 PM 39.2 °F 34.2 °F 37.4 °F 93% 29.42 in 6.2 mi WNW 6.9 mph - N/A Rain Light Rain
3:25 PM 39.2 °F 35.0 °F 37.4 °F 93% 29.42 in 6.2 mi WNW 5.8 mph - N/A Rain Light Rain
3:55 PM 39.2 °F 33.6 °F 37.4 °F 93% 29.39 in 6.2 mi NNW 8.1 mph - N/A Rain Light Rain
4:00 PM 39 °F - 37 °F 89% 29.42 in 10 mi NNW 8.9 mph - - Rain Light Rain
4:55 PM 39.2 °F 34.2 °F 37.4 °F 93% 29.39 in 6.2 mi NNW 6.9 mph - N/A Rain Light Rain
5:25 PM 39.2 °F 34.2 °F 35.6 °F 87% 29.39 in 6.2 mi North 6.9 mph - N/A Rain Light Rain
5:55 PM 37.4 °F 32.1 °F 35.6 °F 93% 29.39 in 6.2 mi North 6.9 mph - N/A   Light Drizzle
6:25 PM 39.2 °F 34.2 °F 37.4 °F 93% 29.39 in 6.2 mi NNW 6.9 mph - N/A   Mostly Cloudy
6:55 PM 37.4 °F 32.1 °F 37.4 °F 100% 29.39 in 6.2 mi NNW 6.9 mph - N/A   Scattered Clouds
7:00 PM 37 °F - 36 °F 93% 29.40 in 28 mi NNW 6.7 mph - - Rain Drizzle
7:25 PM 35.6 °F 31.7 °F 35.6 °F 100% 29.39 in 6.2 mi NW 4.6 mph - N/A   Mostly Cloudy
7:55 PM 37.4 °F 33.8 °F 37.4 °F 100% 29.39 in 6.2 mi WNW 4.6 mph - N/A   Mostly Cloudy
8:55 PM 35.6 °F 30.7 °F 35.6 °F 100% 29.39 in 6.2 mi WNW 5.8 mph - N/A   Mostly Cloudy
9:25 PM 37.4 °F 33.8 °F 35.6 °F 93% 29.39 in 6.2 mi WNW 4.6 mph - N/A   Mostly Cloudy
9:55 PM 39.2 °F 35.0 °F 37.4 °F 93% 29.39 in 6.2 mi WNW 5.8 mph - N/A   Mostly Cloudy
10:00 PM 38 °F - 37 °F 93% 29.40 in 9 mi WNW 6.7 mph - - Rain Drizzle
10:25 PM 37.4 °F 32.8 °F 35.6 °F 93% 29.39 in 6.2 mi WNW 5.8 mph - N/A   Mostly Cloudy
10:55 PM 37.4 °F 33.8 °F 37.4 °F 100% 29.39 in 6.2 mi WNW 4.6 mph - N/A   Mostly Cloudy
11:25 PM 39.2 °F 34.2 °F 37.4 °F 93% 29.39 in 6.2 mi West 6.9 mph - N/A   Mostly Cloudy
11:55 PM 37.4 °F 32.8 °F 35.6 °F 93% 29.39 in 6.2 mi WNW 5.8 mph - N/A   Scattered Clouds